Location: Bathurst
(33.4193°S, 149.5775°E)
Time: 21:38:17
(UTC+11:00)

ISS - Pass Details

Date: 26 January 2021
Orbit: 417 x 422 km, 51.6° (Epoch: 28 February)

Event Time Altitude Azimuth Distance (km) Brightness Sun altitude
Exits shadow 04:39:23 63° 293° (WNW) 477 -3.8 -18.5°
Maximum altitude 04:39:50 80° 224° (SW) 435 -3.8 -18.4°
Drops below altitude 10° 04:43:16 10° 136° (SE) 1,520 0.3 -17.8°
Sets 04:45:23 0° 134° (SE) 2,390 1.8 -17.5°
